Satellite: NOAA-11
Catalog number: 19531
Epoch time:      10188.81824941
Element set:    0138
Inclination:      098.7692 deg
RA of node:       277.4928 deg
Eccentricity:    0.0012445
Arg of perigee:   088.7767 deg
Mean anomaly:     271.4839 deg
Mean motion:   14.14928871 rev/day
Decay rate:      -1.45e-06 rev/day^2
Epoch rev:           12405
Checksum:              339

Satellite: NOAA-12
Catalog number: 21263
Epoch time:      10188.77453134
Element set:    0626
Inclination:      098.7647 deg
RA of node:       201.9302 deg
Eccentricity:    0.0013351
Arg of perigee:   104.9465 deg
Mean anomaly:     255.3195 deg
Mean motion:   14.25642613 rev/day
Decay rate:        4.0e-07 rev/day^2
Epoch rev:           99533
Checksum:              291

Satellite: MET-3/5
Catalog number: 21655
Epoch time:      10189.60340249
Element set:     856
Inclination:      082.5594 deg
RA of node:       293.5050 deg
Eccentricity:    0.0012312
Arg of perigee:   298.6226 deg
Mean anomaly:     061.3587 deg
Mean motion:   13.17022984 rev/day
Decay rate:        5.1e-07 rev/day^2
Epoch rev:           90849
Checksum:              308

Satellite: MET-2/21
Catalog number: 22782
Epoch time:      10188.68394666
Element set:    0824
Inclination:      082.5471 deg
RA of node:       236.1800 deg
Eccentricity:    0.0022002
Arg of perigee:   349.6181 deg
Mean anomaly:     010.4520 deg
Mean motion:   13.83645106 rev/day
Decay rate:       -1.8e-07 rev/day^2
Epoch rev:           85091
Checksum:              284

Satellite: OKEAN-4
Catalog number: 23317
Epoch time:      10188.83568885
Element set:     278
Inclination:      082.5418 deg
RA of node:       334.5836 deg
Eccentricity:    0.0022276
Arg of perigee:   169.3675 deg
Mean anomaly:     190.8042 deg
Mean motion:   14.82832778 rev/day
Decay rate:       1.28e-06 rev/day^2
Epoch rev:           84951
Checksum:              344

Satellite: NOAA-14
Catalog number: 23455
Epoch time:      10188.73650177
Element set:    0117
Inclination:      098.8783 deg
RA of node:       269.3378 deg
Eccentricity:    0.0009301
Arg of perigee:   172.2785 deg
Mean anomaly:     187.8522 deg
Mean motion:   14.13789621 rev/day
Decay rate:        2.4e-07 rev/day^2
Epoch rev:           80040
Checksum:              317

Satellite: NOAA-15
Catalog number: 25338
Epoch time:      10188.58893807
Element set:    0438
Inclination:      098.6198 deg
RA of node:       175.1474 deg
Eccentricity:    0.0011087
Arg of perigee:   021.1818 deg
Mean anomaly:     338.9840 deg
Mean motion:   14.24838347 rev/day
Decay rate:        8.0e-08 rev/day^2
Epoch rev:           63165
Checksum:              336

Satellite: RESURS
Catalog number: 25394
Epoch time:      10189.63507893
Element set:     547
Inclination:      098.3041 deg
RA of node:       206.5472 deg
Eccentricity:    0.0001768
Arg of perigee:   123.1048 deg
Mean anomaly:     237.0307 deg
Mean motion:   14.24205327 rev/day
Decay rate:        4.0e-08 rev/day^2
Epoch rev:           62340
Checksum:              273

Satellite: FENGYUN1
Catalog number: 25730
Epoch time:      10189.47917132
Element set:      84
Inclination:      098.7857 deg
RA of node:       153.8800 deg
Eccentricity:    0.0020723
Arg of perigee:   205.9712 deg
Mean anomaly:     154.0427 deg
Mean motion:   14.08189737 rev/day
Decay rate:        2.5e-07 rev/day^2
Epoch rev:           57468
Checksum:              310

Satellite: OKEAN-0
Catalog number: 25860
Epoch time:      10189.46517684
Element set:      40
Inclination:      097.8329 deg
RA of node:       161.4408 deg
Eccentricity:    0.0001661
Arg of perigee:   052.2971 deg
Mean anomaly:     307.8390 deg
Mean motion:   14.73648007 rev/day
Decay rate:        4.6e-07 rev/day^2
Epoch rev:           59003
Checksum:              295

Satellite: NOAA-16
Catalog number: 26536
Epoch time:      10188.62602231
Element set:    0915
Inclination:      099.1698 deg
RA of node:       206.5758 deg
Eccentricity:    0.0009608
Arg of perigee:   281.5917 deg
Mean anomaly:     078.4192 deg
Mean motion:   14.12565128 rev/day
Decay rate:      -1.48e-06 rev/day^2
Epoch rev:           50471
Checksum:              322

Satellite: NOAA-17
Catalog number: 27453
Epoch time:      10188.93261687
Element set:    0916
Inclination:      098.4302 deg
RA of node:       238.5408 deg
Eccentricity:    0.0012758
Arg of perigee:   078.4015 deg
Mean anomaly:     281.8576 deg
Mean motion:   14.24171558 rev/day
Decay rate:        7.9e-07 rev/day^2
Epoch rev:           41765
Checksum:              334

Satellite: NOAA-18
Catalog number: 28654
Epoch time:      10188.93003690
Element set:    0400
Inclination:      098.9494 deg
RA of node:       135.1346 deg
Eccentricity:    0.0014570
Arg of perigee:   359.0580 deg
Mean anomaly:     001.0581 deg
Mean motion:   14.11368232 rev/day
Decay rate:      -1.09e-06 rev/day^2
Epoch rev:           26436
Checksum:              287

Satellite: NOAA-19
Catalog number: 33591
Epoch time:      10188.92255601
Element set:    0597
Inclination:      098.7876 deg
RA of node:       130.6028 deg
Eccentricity:    0.0013146
Arg of perigee:   229.0133 deg
Mean anomaly:     130.9922 deg
Mean motion:   14.11064356 rev/day
Decay rate:      -1.30e-06 rev/day^2
Epoch rev:           07283
Checksum:              292

/EX
SB KEPS @ AMSAT  $ORB10189.M
Orbital Elements  10189.MISC

HR AMSAT ORBITAL ELEMENTS FOR MANNED AND MISCELLANEOUS SATELLITES
FROM WA5QGD FORT WORTH,TX July 8, 2010
Send Subscribe/unsubscribe to KEPS at http://www.amsat.org/mailman/listinfo/keps
BID: ORB10189.M
TO ALL RADIO AMATEURS BT

Satellite: HUBBLE
Catalog number: 20580
Epoch time:      10189.12550785
Element set:     598
Inclination:      028.4681 deg
RA of node:       103.1700 deg
Eccentricity:    0.0003373
Arg of perigee:   068.1193 deg
Mean anomaly:     291.9745 deg
Mean motion:   15.00995398 rev/day
Decay rate:       4.06e-06 rev/day^2
Epoch rev:           90790
Checksum:              304

Satellite: ISS
Catalog number: 25544
Epoch time:      10190.00027912
Element set:     475
Inclination:      051.6461 deg
RA of node:       118.9352 deg
Eccentricity:    0.0010301
Arg of perigee:   057.8761 deg
Mean anomaly:     044.0550 deg
Mean motion:   15.72282046 rev/day
Decay rate:      6.815e-05 rev/day^2
Epoch rev:           66690
Checksum:              269

Satellite: CO-58
Catalog number: 28895
Epoch time:      10188.61154042
Element set:     625
Inclination:      098.0127 deg
RA of node:       072.4103 deg
Eccentricity:    0.0016926
Arg of perigee:   219.2510 deg
Mean anomaly:     140.7466 deg
Mean motion:   14.59907667 rev/day
Decay rate:       1.16e-06 rev/day^2
Epoch rev:           24996
Checksum:              317

Satellite: FALCON
Catalog number: 30776
Epoch time:      10188.59855289
Element set:    0877
Inclination:      035.4341 deg
RA of node:       280.3668 deg
Eccentricity:    0.0001649
Arg of perigee:   338.5622 deg
Mean anomaly:     021.5025 deg
Mean motion:   15.03708471 rev/day
Decay rate:       4.42e-06 rev/day^2
Epoch rev:           18313
Checksum:              302

Satellite: MAST
Catalog number: 31126
Epoch time:      10188.66624523
Element set:     907
Inclination:      097.9362 deg
RA of node:       229.6185 deg
Eccentricity:    0.0094547
Arg of perigee:   161.8316 deg
Mean anomaly:     198.6292 deg
Mean motion:   14.53600126 rev/day
Decay rate:        8.8e-07 rev/day^2
Epoch rev:           17103
Checksum:              308

Satellite: CAPE1
Catalog number: 31130
Epoch time:      10188.80659317
Element set:    0929
Inclination:      097.9389 deg
RA of node:       227.1213 deg
Eccentricity:    0.0102252
Arg of perigee:   169.2891 deg
Mean anomaly:     191.0491 deg
Mean motion:   14.52195989 rev/day
Decay rate:       1.99e-06 rev/day^2
Epoch rev:           17065
Checksum:              322

Satellite: COMPASS
Catalog number: 32787
Epoch time:      10189.30316139
Element set:     717
Inclination:      097.8934 deg
RA of node:       253.7703 deg
Eccentricity:    0.0015149
Arg of perigee:   213.2804 deg
Mean anomaly:     146.7410 deg
Mean motion:   14.81903856 rev/day
Decay rate:       2.65e-06 rev/day^2
Epoch rev:           11862
Checksum:              302

Satellite: AAUSAT2
Catalog number: 32788
Epoch time:      10188.69652965
Element set:    0712
Inclination:      097.8930 deg
RA of node:       253.3040 deg
Eccentricity:    0.0014571
Arg of perigee:   216.8269 deg
Mean anomaly:     143.1916 deg
Mean motion:   14.82049102 rev/day
Decay rate:       5.91e-06 rev/day^2
Epoch rev:           11854
Checksum:              310

Satellite: DO-64
Catalog number: 32789
Epoch time:      10188.77089967
Element set:    0729
Inclination:      097.9000 deg
RA of node:       253.8740 deg
Eccentricity:    0.0014951
Arg of perigee:   214.0523 deg
Mean anomaly:     145.9695 deg
Mean motion:   14.82201584 rev/day
Decay rate:       5.84e-06 rev/day^2
Epoch rev:           11855
Checksum:              340

Satellite: CO-66
Catalog number: 32791
Epoch time:      10188.18014593
Element set:    0711
Inclination:      097.8952 deg
RA of node:       252.6761 deg
Eccentricity:    0.0015257
Arg of perigee:   216.1249 deg
Mean anomaly:     143.8913 deg
Mean motion:   14.81683481 rev/day
Decay rate:        1.4e-07 rev/day^2
Epoch rev:           11841
Checksum:              310

Satellite: RS-30
Catalog number: 32953
Epoch time:      10189.61999529
Element set:     851
Inclination:      082.5003 deg
RA of node:       016.3483 deg
Eccentricity:    0.0019864
Arg of perigee:   056.9223 deg
Mean anomaly:     303.3759 deg
Mean motion:   12.43006185 rev/day
Decay rate:        1.0e-07 rev/day^2
Epoch rev:            9640
Checksum:              297

